Time,TemperatureF,DewpointF,PressureIn,WindDirection,WindDirectionDegrees,WindSpeedMPH,WindSpeedGustMPH,Humidity,HourlyPrecipIn,Conditions,Clouds,dailyrainin,SoftwareType,DateUTC
2013-03-24 00:02:00,33.2,19.0,29.90,North,0,0.0,-999.0,56,-99.99,,,0.00,weatherlink.com 1.10,2013-03-24 04:02:00,
2013-03-24 00:17:00,32.8,19.0,29.89,ESE,107,2.0,-999.0,58,-99.99,,,0.00,weatherlink.com 1.10,2013-03-24 04:17:00,
2013-03-24 00:32:00,32.9,19.0,29.88,ESE,113,0.0,-999.0,57,-99.99,,,0.00,weatherlink.com 1.10,2013-03-24 04:32:00,
2013-03-24 00:47:00,32.7,19.0,29.89,ESE,107,0.0,-999.0,57,-99.99,,,0.00,weatherlink.com 1.10,2013-03-24 04:47:00,
2013-03-24 01:02:00,32.1,19.0,29.87,ENE,58,0.0,-999.0,58,-99.99,,,0.00,weatherlink.com 1.10,2013-03-24 05:02:00,
2013-03-24 01:17:00,30.6,19.0,29.86,NE,56,0.0,-999.0,62,-99.99,,,0.00,weatherlink.com 1.10,2013-03-24 05:17:00,
2013-03-24 01:32:00,30.4,17.0,29.86,NE,56,0.0,-999.0,59,-99.99,,,0.00,weatherlink.com 1.10,2013-03-24 05:32:00,
2013-03-24 01:47:00,31.9,18.0,29.87,ENE,65,0.0,-999.0,57,-99.99,,,0.00,weatherlink.com 1.10,2013-03-24 05:47:00,
2013-03-24 02:02:00,31.0,18.0,29.86,NNW,329,3.0,-999.0,60,-99.99,,,0.00,weatherlink.com 1.10,2013-03-24 06:02:00,
2013-03-24 02:17:00,30.4,18.0,29.86,NNW,329,1.0,-999.0,61,-99.99,,,0.00,weatherlink.com 1.10,2013-03-24 06:17:00,
2013-03-24 02:32:00,29.5,19.0,29.86,NNW,330,0.0,-999.0,64,-99.99,,,0.00,weatherlink.com 1.10,2013-03-24 06:32:00,
2013-03-24 02:47:00,29.0,19.0,29.85,NNW,332,0.0,-999.0,65,-99.99,,,0.00,weatherlink.com 1.10,2013-03-24 06:47:00,
2013-03-24 03:02:00,29.8,18.0,29.84,NNW,344,0.0,-999.0,63,-99.99,,,0.00,weatherlink.com 1.10,2013-03-24 07:02:00,
2013-03-24 03:17:00,28.7,19.0,29.84,SE,126,3.0,-999.0,66,-99.99,,,0.00,weatherlink.com 1.10,2013-03-24 07:17:00,
2013-03-24 03:32:00,30.1,18.0,29.84,East,92,0.0,-999.0,62,-99.99,,,0.00,weatherlink.com 1.10,2013-03-24 07:32:00,
2013-03-24 03:47:00,28.7,19.0,29.85,SSW,203,0.0,-999.0,66,-99.99,,,0.00,weatherlink.com 1.10,2013-03-24 07:47:00,
2013-03-24 04:02:00,29.3,18.0,29.85,ESE,103,1.0,-999.0,62,-99.99,,,0.00,weatherlink.com 1.10,2013-03-24 08:02:00,
2013-03-24 04:17:00,30.0,18.0,29.86,SSW,199,0.0,-999.0,60,-99.99,,,0.00,weatherlink.com 1.10,2013-03-24 08:17:00,
2013-03-24 04:32:00,31.0,17.0,29.86,SSW,198,0.0,-999.0,57,-99.99,,,0.00,weatherlink.com 1.10,2013-03-24 08:32:00,
2013-03-24 04:47:00,30.9,17.0,29.85,NE,54,0.0,-999.0,57,-99.99,,,0.00,weatherlink.com 1.10,2013-03-24 08:47:00,
2013-03-24 05:03:00,30.7,17.0,29.84,North,0,5.0,-999.0,58,-99.99,,,0.00,weatherlink.com 1.10,2013-03-24 09:03:00,
2013-03-24 05:18:00,30.6,17.0,29.84,NNW,332,0.0,-999.0,57,-99.99,,,0.00,weatherlink.com 1.10,2013-03-24 09:18:00,
2013-03-24 05:33:00,31.2,17.0,29.83,ENE,59,3.0,-999.0,56,-99.99,,,0.00,weatherlink.com 1.10,2013-03-24 09:33:00,
2013-03-24 05:48:00,30.7,17.0,29.82,SSE,150,3.0,-999.0,58,-99.99,,,0.00,weatherlink.com 1.10,2013-03-24 09:48:00,
2013-03-24 06:03:00,30.0,17.0,29.82,NNE,28,0.0,-999.0,59,-99.99,,,0.00,weatherlink.com 1.10,2013-03-24 10:03:00,
2013-03-24 06:18:00,29.7,17.0,29.82,NNE,32,0.0,-999.0,59,-99.99,,,0.00,weatherlink.com 1.10,2013-03-24 10:18:00,
2013-03-24 06:33:00,28.1,17.0,29.83,NNE,28,0.0,-999.0,64,-99.99,,,0.00,weatherlink.com 1.10,2013-03-24 10:33:00,
2013-03-24 06:48:00,28.7,17.0,29.82,NNE,30,1.0,-999.0,63,-99.99,,,0.00,weatherlink.com 1.10,2013-03-24 10:48:00,
2013-03-24 07:03:00,28.5,18.0,29.82,North,359,0.0,-999.0,64,-99.99,,,0.00,weatherlink.com 1.10,2013-03-24 11:03:00,
2013-03-24 07:18:00,29.1,17.0,29.83,West,270,3.0,-999.0,61,-99.99,,,0.00,weatherlink.com 1.10,2013-03-24 11:18:00,
2013-03-24 07:33:00,31.2,17.0,29.83,SSE,168,0.0,-999.0,55,-99.99,,,0.00,weatherlink.com 1.10,2013-03-24 11:33:00,
2013-03-24 07:48:00,31.5,16.0,29.82,ENE,64,0.0,-999.0,54,-99.99,,,0.00,weatherlink.com 1.10,2013-03-24 11:48:00,
2013-03-24 08:03:00,31.0,16.0,29.81,SE,124,3.0,-999.0,55,-99.99,,,0.00,weatherlink.com 1.10,2013-03-24 12:03:00,
2013-03-24 08:18:00,31.3,16.0,29.80,NE,40,2.0,-999.0,53,-99.99,,,0.00,weatherlink.com 1.10,2013-03-24 12:18:00,
2013-03-24 08:33:00,32.1,16.0,29.79,East,88,4.0,-999.0,51,-99.99,,,0.00,weatherlink.com 1.10,2013-03-24 12:33:00,
2013-03-24 08:48:00,31.0,17.0,29.78,North,11,5.0,-999.0,57,-99.99,,,0.00,weatherlink.com 1.10,2013-03-24 12:48:00,
2013-03-24 09:03:00,32.2,16.0,29.77,North,0,4.0,-999.0,51,-99.99,,,0.00,weatherlink.com 1.10,2013-03-24 13:03:00,
2013-03-24 09:18:00,33.5,16.0,29.77,East,83,0.0,-999.0,49,-99.99,,,0.00,weatherlink.com 1.10,2013-03-24 13:18:00,
2013-03-24 09:33:00,33.7,16.0,29.76,NNE,30,0.0,-999.0,49,-99.99,,,0.00,weatherlink.com 1.10,2013-03-24 13:33:00,
2013-03-24 09:48:00,34.3,16.0,29.74,NNW,337,1.0,-999.0,48,-99.99,,,0.00,weatherlink.com 1.10,2013-03-24 13:48:00,
2013-03-24 10:03:00,34.4,16.0,29.73,West,277,4.0,-999.0,47,-99.99,,,0.00,weatherlink.com 1.10,2013-03-24 14:03:00,
2013-03-24 10:18:00,34.6,16.0,29.73,SW,219,7.0,-999.0,47,-99.99,,,0.00,weatherlink.com 1.10,2013-03-24 14:18:00,
2013-03-24 10:33:00,35.0,17.0,29.72,WNW,302,2.0,-999.0,48,-99.99,,,0.00,weatherlink.com 1.10,2013-03-24 14:33:00,
2013-03-24 10:48:00,35.3,16.0,29.70,North,354,6.0,-999.0,46,-99.99,,,0.00,weatherlink.com 1.10,2013-03-24 14:48:00,
2013-03-24 11:03:00,36.0,17.0,29.69,NW,305,1.0,-999.0,46,-99.99,,,0.00,weatherlink.com 1.10,2013-03-24 15:03:00,
2013-03-24 11:18:00,36.3,17.0,29.70,WNW,294,0.0,-999.0,45,-99.99,,,0.00,weatherlink.com 1.10,2013-03-24 15:18:00,
2013-03-24 11:33:00,36.8,17.0,29.68,North,4,3.0,-999.0,44,-99.99,,,0.00,weatherlink.com 1.10,2013-03-24 15:33:00,
2013-03-24 11:48:00,37.3,17.0,29.68,NNW,335,0.0,-999.0,43,-99.99,,,0.00,weatherlink.com 1.10,2013-03-24 15:48:00,
2013-03-24 12:03:00,37.9,16.0,29.66,NE,35,7.0,-999.0,41,-99.99,,,0.00,weatherlink.com 1.10,2013-03-24 16:03:00,
2013-03-24 12:18:00,38.5,17.0,29.64,NNE,30,7.0,-999.0,41,-99.99,,,0.00,weatherlink.com 1.10,2013-03-24 16:18:00,
2013-03-24 12:33:00,38.5,16.0,29.62,ENE,58,2.0,-999.0,40,-99.99,,,0.00,weatherlink.com 1.10,2013-03-24 16:33:00,
2013-03-24 12:48:00,38.8,16.0,29.60,SE,134,3.0,-999.0,40,-99.99,,,0.00,weatherlink.com 1.10,2013-03-24 16:48:00,
2013-03-24 13:03:00,38.2,16.0,29.60,ENE,75,3.0,-999.0,40,-99.99,,,0.00,weatherlink.com 1.10,2013-03-24 17:03:00,
2013-03-24 13:18:00,38.5,17.0,29.62,SE,144,5.0,-999.0,41,-99.99,,,0.00,weatherlink.com 1.10,2013-03-24 17:18:00,
2013-03-24 13:33:00,38.6,15.0,29.60,East,83,0.0,-999.0,39,-99.99,,,0.00,weatherlink.com 1.10,2013-03-24 17:33:00,
2013-03-24 13:48:00,38.8,16.0,29.60,SE,140,0.0,-999.0,39,-99.99,,,0.00,weatherlink.com 1.10,2013-03-24 17:48:00,
2013-03-24 14:03:00,39.2,16.0,29.60,ENE,78,2.0,-999.0,39,-99.99,,,0.00,weatherlink.com 1.10,2013-03-24 18:03:00,
2013-03-24 14:18:00,39.5,17.0,29.60,SE,137,3.0,-999.0,40,-99.99,,,0.00,weatherlink.com 1.10,2013-03-24 18:18:00,
2013-03-24 14:33:00,39.3,17.0,29.59,SE,136,0.0,-999.0,40,-99.99,,,0.00,weatherlink.com 1.10,2013-03-24 18:33:00,
2013-03-24 14:48:00,39.3,18.0,29.58,North,10,3.0,-999.0,43,-99.99,,,0.00,weatherlink.com 1.10,2013-03-24 18:48:00,
2013-03-24 15:03:00,39.6,18.0,29.59,ENE,69,0.0,-999.0,42,-99.99,,,0.00,weatherlink.com 1.10,2013-03-24 19:03:00,
2013-03-24 15:18:00,40.1,19.0,29.59,ENE,68,0.0,-999.0,42,-99.99,,,0.00,weatherlink.com 1.10,2013-03-24 19:18:00,
2013-03-24 15:33:00,40.2,19.0,29.58,East,85,3.0,-999.0,42,-99.99,,,0.00,weatherlink.com 1.10,2013-03-24 19:33:00,
2013-03-24 15:48:00,39.6,19.0,29.59,SE,145,0.0,-999.0,44,-99.99,,,0.00,weatherlink.com 1.10,2013-03-24 19:48:00,
2013-03-24 16:03:00,38.9,20.0,29.58,SSE,154,0.0,-999.0,46,-99.99,,,0.00,weatherlink.com 1.10,2013-03-24 20:03:00,
2013-03-24 16:18:00,37.9,21.0,29.57,South,172,6.0,-999.0,51,-99.99,,,0.00,weatherlink.com 1.10,2013-03-24 20:18:00,
2013-03-24 16:33:00,37.8,22.0,29.56,East,88,3.0,-999.0,54,-99.99,,,0.00,weatherlink.com 1.10,2013-03-24 20:33:00,
2013-03-24 16:48:00,37.2,24.0,29.56,SSE,160,5.0,-999.0,60,-99.99,,,0.00,weatherlink.com 1.10,2013-03-24 20:48:00,
2013-03-24 17:03:00,35.2,27.0,29.55,SE,133,3.0,-999.0,73,-99.99,,,0.00,weatherlink.com 1.10,2013-03-24 21:03:00,
2013-03-24 17:18:00,33.2,27.0,29.55,SE,127,6.0,-999.0,79,-99.99,,,0.00,weatherlink.com 1.10,2013-03-24 21:18:00,
2013-03-24 17:34:00,32.1,28.0,29.55,SE,126,3.0,-999.0,85,-99.99,,,0.00,weatherlink.com 1.10,2013-03-24 21:34:00,
2013-03-24 17:49:00,31.5,28.0,29.55,SSE,148,6.0,-999.0,86,-99.99,,,0.00,weatherlink.com 1.10,2013-03-24 21:49:00,
2013-03-24 18:04:00,31.2,28.0,29.55,ESE,107,0.0,-999.0,88,-99.99,,,0.00,weatherlink.com 1.10,2013-03-24 22:04:00,
2013-03-24 18:19:00,31.0,28.0,29.54,ESE,104,0.0,-999.0,88,-99.99,,,0.00,weatherlink.com 1.10,2013-03-24 22:19:00,
2013-03-24 18:34:00,31.0,28.0,29.53,ESE,112,3.0,-999.0,89,-99.99,,,0.00,weatherlink.com 1.10,2013-03-24 22:34:00,
2013-03-24 18:49:00,31.0,28.0,29.52,SE,137,0.0,-999.0,89,-99.99,,,0.00,weatherlink.com 1.10,2013-03-24 22:49:00,
2013-03-24 19:04:00,31.0,29.0,29.52,West,281,0.0,-999.0,90,-99.99,,,0.00,weatherlink.com 1.10,2013-03-24 23:04:00,
2013-03-24 19:19:00,31.0,29.0,29.51,North,7,3.0,-999.0,90,-99.99,,,0.00,weatherlink.com 1.10,2013-03-24 23:19:00,
2013-03-24 19:34:00,31.0,29.0,29.49,SE,145,9.0,-999.0,90,-99.99,,,0.00,weatherlink.com 1.10,2013-03-24 23:34:00,
2013-03-24 19:49:00,31.2,28.0,29.47,SSW,199,7.0,-999.0,89,-99.99,,,0.00,weatherlink.com 1.10,2013-03-24 23:49:00,
2013-03-24 20:04:00,31.5,28.0,29.47,SSE,154,8.0,-999.0,88,-99.99,,,0.00,weatherlink.com 1.10,2013-03-25 00:04:00,
2013-03-24 20:19:00,31.6,27.0,29.44,SE,127,11.0,-999.0,84,-99.99,,,0.00,weatherlink.com 1.10,2013-03-25 00:19:00,
2013-03-24 20:34:00,31.6,27.0,29.44,SE,141,13.0,-999.0,83,-99.99,,,0.00,weatherlink.com 1.10,2013-03-25 00:34:00,
2013-03-24 20:49:00,31.9,26.0,29.44,ESE,121,16.0,-999.0,80,-99.99,,,0.00,weatherlink.com 1.10,2013-03-25 00:49:00,
2013-03-24 21:04:00,32.1,26.0,29.43,ESE,116,5.0,-999.0,77,-99.99,,,0.00,weatherlink.com 1.10,2013-03-25 01:04:00,
2013-03-24 21:19:00,32.5,25.0,29.42,SE,131,2.0,-999.0,75,-99.99,,,0.00,weatherlink.com 1.10,2013-03-25 01:19:00,
2013-03-24 21:34:00,32.7,26.0,29.42,ESE,120,2.0,-999.0,75,-99.99,,,0.00,weatherlink.com 1.10,2013-03-25 01:34:00,
2013-03-24 21:49:00,32.7,25.0,29.41,East,96,5.0,-999.0,74,-99.99,,,0.00,weatherlink.com 1.10,2013-03-25 01:49:00,
2013-03-24 22:04:00,32.4,26.0,29.39,ESE,114,6.0,-999.0,76,-99.99,,,0.00,weatherlink.com 1.10,2013-03-25 02:04:00,
2013-03-24 22:19:00,32.8,25.0,29.39,SE,133,10.0,-999.0,73,-99.99,,,0.00,weatherlink.com 1.10,2013-03-25 02:19:00,
2013-03-24 22:34:00,32.5,25.0,29.38,SSE,152,11.0,-999.0,74,-99.99,,,0.00,weatherlink.com 1.10,2013-03-25 02:34:00,
2013-03-24 22:49:00,32.2,25.0,29.37,East,100,10.0,-999.0,76,-99.99,,,0.00,weatherlink.com 1.10,2013-03-25 02:49:00,
2013-03-24 23:04:00,32.2,25.0,29.36,SSE,151,11.0,-999.0,76,-99.99,,,0.00,weatherlink.com 1.10,2013-03-25 03:04:00,
2013-03-24 23:19:00,32.2,25.0,29.35,NNE,31,11.0,-999.0,76,-99.99,,,0.00,weatherlink.com 1.10,2013-03-25 03:19:00,
2013-03-24 23:34:00,32.2,26.0,29.34,ESE,116,11.0,-999.0,77,-99.99,,,0.00,weatherlink.com 1.10,2013-03-25 03:34:00,
2013-03-24 23:49:00,32.2,26.0,29.36,ENE,76,8.0,-999.0,77,-99.99,,,0.00,weatherlink.com 1.10,2013-03-25 03:49:00,